Weather History for Nellis AFB, NV

Change the Weather History Date:

Sunday, April 6, 2014

  Actual Average Record
Temperature  
Mean Temperature 64 °F -  
Max Temperature 78 °F 71 °F 86 °F (2007)
Min Temperature 52 °F 49 °F 39 °F (2003)
Growing Degree Days 14 (Base 50)    
Moisture  
Dew Point 24 °F    
Average Humidity 19    
Maximum Humidity 32    
Minimum Humidity 13    
Precipitation  
Precipitation 0.00 in - - ()
Sea Level Pressure  
Sea Level Pressure 30.03 in    
Wind  
Wind Speed 7 mph (NNE)    
Max Wind Speed 24 mph    
Max Gust Speed 29 mph    
Visibility 10 miles    
Events      
Averages and records for this station are not official NWS values.
T = Trace of Precipitation, MM = Missing Value Source: NWS Daily Summary

Daily Weather History Graph

Daily Weather History Graph

Search for Another Location

Airport:

Trip Planner

Search our weather history database for the weather conditions in past years. The results will help you decide how hot, cold, wet, or windy it might be!

Date:

Astronomy

Apr. 06, 2014 Rise Set
Actual Time 6:19 AM PDT 7:06 PM PDT
Civil Twilight 5:52 AM PDT 7:32 PM PDT
Nautical Twilight 5:22 AM PDT 8:03 PM PDT
Astronomical Twilight 4:50 AM PDT 8:35 PM PDT
Moon 11:29 AM PDT (4/6) 12:59 AM PDT (4/6)
Length of Visible Light 13h 39m
Length of Day
12h 47m
Waxing Crescent, 45% of the Moon is Illuminated
Apr 6
Waxing Crescent
Apr 7
First Quarter
Apr 15
Full
Apr 22
Last Quarter
Apr 28
New

Hourly Weather History & Observations

Time (PDT) Temp. Dew Point Humidity Pressure Visibility Wind Dir Wind Speed Gust Speed Precip Events Conditions
12:58 AM 60.4 °F 22.6 °F 23% 29.99 in 10.0 mi SSE 2.3 mph - N/A   Clear
1:58 AM 63.3 °F 23.4 °F 22% 30.01 in 10.0 mi WNW 10.4 mph - N/A   Clear
2:58 AM 59.9 °F 23.4 °F 25% 30.01 in 10.0 mi Variable 2.3 mph - N/A   Clear
3:58 AM 57.9 °F 23.5 °F 27% 30.03 in 10.0 mi NW 8.1 mph - N/A   Clear
4:58 AM 60.1 °F 21.9 °F 23% 30.04 in 10.0 mi NNW 4.6 mph - N/A   Clear
5:58 AM 55.4 °F 23.0 °F 29% 30.06 in 10.0 mi SE 2.3 mph - N/A   Clear
6:58 AM 52.7 °F 23.5 °F 32% 30.10 in 10.0 mi Variable 2.3 mph - N/A   Clear
7:58 AM 56.7 °F 24.8 °F 29% 30.10 in 10.0 mi ESE 1.2 mph - N/A   Clear
8:58 AM 61.3 °F 24.6 °F 25% 30.11 in 10.0 mi South 2.3 mph - N/A   Clear
9:58 AM 64.9 °F 24.4 °F 22% 30.11 in 10.0 mi NNE 12.7 mph 19.6 mph N/A   Clear
10:58 AM 68.9 °F 24.1 °F 18% 30.08 in 10.0 mi NNE 24.2 mph 28.8 mph N/A   Clear
11:58 AM 71.2 °F 23.2 °F 16% 30.06 in 10.0 mi NNE 15.0 mph 23.0 mph N/A   Clear
12:49 PM 71.6 °F 24.8 °F 17% 30.08 in 10.0 mi North 17.3 mph 24.2 mph N/A   Clear
12:55 PM 73.4 °F 24.8 °F 16% 30.08 in 10.0 mi NNW 17.3 mph 24.2 mph N/A   Clear
12:58 PM 72.7 °F 24.4 °F 16% 30.04 in 10.0 mi NW 10.4 mph 24.2 mph N/A   Clear
1:58 PM 73.8 °F 24.8 °F 16% 30.02 in 10.0 mi ENE 11.5 mph 17.3 mph N/A   Clear
2:58 PM 74.8 °F 24.8 °F 16% 30.00 in 10.0 mi West 6.9 mph - N/A   Clear
3:58 PM 77.2 °F 23.2 °F 13% 29.98 in 10.0 mi NW 15.0 mph 17.3 mph N/A   Clear
4:23 PM 77.0 °F 23.0 °F 13% 30.01 in 10.0 mi WNW 12.7 mph - N/A   Clear
4:58 PM 77.5 °F 23.5 °F 13% 29.96 in 10.0 mi Variable 3.5 mph 17.3 mph N/A   Clear
5:58 PM 77.5 °F 23.5 °F 13% 29.96 in 10.0 mi NNW 4.6 mph - N/A   Clear
6:58 PM 76.6 °F 22.6 °F 13% 29.96 in 10.0 mi ESE 4.6 mph - N/A   Clear
7:58 PM 71.8 °F 23.7 °F 17% 29.98 in 10.0 mi NE 6.9 mph - N/A   Clear
8:58 PM 68.2 °F 22.1 °F 17% 30.00 in 10.0 mi East 8.1 mph - N/A   Clear
9:58 PM 71.4 °F 23.4 °F 16% 30.01 in 10.0 mi NNE 13.8 mph - N/A   Clear
10:58 PM 68.7 °F 23.9 °F 18% 30.03 in 10.0 mi ENE 8.1 mph - N/A   Clear
11:58 PM 67.5 °F 24.1 °F 19% 30.04 in 10.0 mi NE 5.8 mph - N/A   Clear